| time (UTC) | temp F | wind direction | speed MPH | gust MPH | rain 1hr in | rain 24hr in | rain mn in | humidity % | barometer mb |
| 20260510204115 | 76 | 24 | 0.0 | 0.0 | 0.00 | 0.00 | 0.00 | 72 | 1016.8 |
| 20260510203539 | 76 | 24 | 2.0 | 0.0 | 0.00 | 0.00 | 0.00 | 73 | 1016.8 |
| 20260510203055 | 76 | 71 | 1.0 | 0.0 | 0.00 | 0.00 | 0.00 | 74 | 1016.9 |
| 20260510202547 | 76 | 72 | 0.0 | 0.0 | 0.00 | 0.00 | 0.00 | 72 | 1016.8 |
| 20260510202052 | 76 | 0 | 0.0 | 0.0 | 0.00 | 0.00 | 0.00 | 72 | 1016.8 |
| 20260510201558 | 76 | 0 | 0.0 | 0.0 | 0.00 | 0.00 | 0.00 | 72 | 1016.8 |
| 20260510201110 | 76 | 76 | 0.0 | 0.0 | 0.00 | 0.00 | 0.00 | 71 | 1016.8 |
| 20260510200556 | 76 | 75 | 1.0 | 0.0 | 0.00 | 0.00 | 0.00 | 73 | 1016.9 |
| 20260510200045 | 76 | 346 | 0.0 | 0.0 | 0.00 | 0.00 | 0.00 | 73 | 1016.9 |
| 20260510195615 | 76 | 33 | 2.0 | 0.0 | 0.00 | 0.00 | 0.00 | 73 | 1017.0 |
| 20260510195056 | 77 | 0 | 1.0 | 0.0 | 0.00 | 0.00 | 0.00 | 73 | 1016.9 |
| 20260510194542 | 77 | 11 | 2.0 | 0.0 | 0.00 | 0.00 | 0.00 | 73 | 1016.8 |
| 20260510194053 | 77 | 322 | 0.0 | 0.0 | 0.00 | 0.00 | 0.00 | 74 | 1016.8 |
| 20260510193559 | 76 | 0 | 0.0 | 0.0 | 0.00 | 0.00 | 0.00 | 76 | 1016.8 |
| 20260510193113 | 76 | 0 | 0.0 | 0.0 | 0.00 | 0.00 | 0.00 | 77 | 1016.9 |
| 20260510192602 | 76 | 30 | 1.0 | 0.0 | 0.00 | 0.00 | 0.00 | 75 | 1017.0 |
| 20260510192050 | 76 | 54 | 1.0 | 0.0 | 0.00 | 0.00 | 0.00 | 75 | 1017.1 |
| 20260510191554 | 76 | 45 | 1.0 | 0.0 | 0.00 | 0.00 | 0.00 | 75 | 1017.0 |
| 20260510191040 | 76 | 112 | 0.0 | 0.0 | 0.00 | 0.00 | 0.00 | 75 | 1017.1 |
| 20260510190556 | 76 | 6 | 0.0 | 0.0 | 0.00 | 0.00 | 0.00 | 75 | 1017.0 |
| 20260510190039 | 76 | 0 | 0.0 | 0.0 | 0.00 | 0.00 | 0.00 | 74 | 1017.1 |
| 20260510185555 | 77 | 9 | 1.0 | 0.0 | 0.00 | 0.00 | 0.00 | 72 | 1017.1 |
| 20260510185038 | 78 | 0 | 2.0 | 0.0 | 0.00 | 0.00 | 0.00 | 74 | 1017.2 |
| 20260510184558 | 77 | 0 | 3.0 | 0.0 | 0.00 | 0.00 | 0.00 | 74 | 1017.4 |
| 20260510184047 | 77 | 33 | 0.0 | 0.0 | 0.00 | 0.00 | 0.00 | 78 | 1017.4 |
| 20260510183536 | 76 | 99 | 1.0 | 0.0 | 0.00 | 0.00 | 0.00 | 76 | 1017.5 |
| 20260510183055 | 76 | 94 | 0.0 | 0.0 | 0.00 | 0.00 | 0.00 | 75 | 1017.5 |
| 20260510182603 | 76 | 61 | 0.0 | 0.0 | 0.00 | 0.00 | 0.00 | 75 | 1017.4 |
| 20260510182048 | 77 | 86 | 0.0 | 0.0 | 0.00 | 0.00 | 0.00 | 75 | 1017.6 |
| 20260510181555 | 77 | 108 | 0.0 | 0.0 | 0.00 | 0.00 | 0.00 | 77 | 1017.6 |
| 20260510181044 | 76 | 108 | 0.0 | 0.0 | 0.00 | 0.00 | 0.00 | 77 | 1017.6 |
| 20260510180554 | 76 | 343 | 1.0 | 0.0 | 0.00 | 0.00 | 0.00 | 77 | 1017.6 |
| 20260510180055 | 76 | 0 | 0.0 | 0.0 | 0.00 | 0.00 | 0.00 | 78 | 1017.6 |
| 20260510175601 | 76 | 0 | 1.0 | 0.0 | 0.00 | 0.00 | 0.00 | 77 | 1017.7 |
| 20260510175108 | 76 | 56 | 0.0 | 0.0 | 0.00 | 0.00 | 0.00 | 78 | 1017.7 |
| 20260510174548 | 76 | 283 | 0.0 | 0.0 | 0.00 | 0.00 | 0.00 | 81 | 1017.8 |
| 20260510174037 | 75 | 0 | 0.0 | 0.0 | 0.00 | 0.00 | 0.00 | 79 | 1017.9 |
| 20260510173553 | 74 | 37 | 0.0 | 0.0 | 0.00 | 0.00 | 0.00 | 85 | 1017.9 |
| 20260510173057 | 73 | 37 | 1.0 | 0.0 | 0.00 | 0.00 | 0.00 | 84 | 1017.9 |
| 20260510172543 | 73 | 8 | 0.0 | 0.0 | 0.00 | 0.00 | 0.00 | 84 | 1017.9 |
| 20260510172057 | 73 | 8 | 0.0 | 0.0 | 0.00 | 0.00 | 0.00 | 85 | 1018.1 |
| 20260510171558 | 73 | 25 | 2.0 | 0.0 | 0.00 | 0.00 | 0.00 | 88 | 1018.1 |
| 20260510171124 | 72 | 102 | 0.0 | 0.0 | 0.00 | 0.00 | 0.00 | 90 | 1018.2 |
| 20260510170547 | 71 | 102 | 0.0 | 0.0 | 0.00 | 0.00 | 0.00 | 91 | 1018.2 |
| 20260510170038 | 70 | 102 | 0.0 | 0.0 | 0.00 | 0.00 | 0.00 | 93 | 1018.3 |
| 20260510165554 | 70 | 102 | 0.0 | 0.0 | 0.00 | 0.00 | 0.00 | 94 | 1018.2 |
| 20260510165044 | 69 | 102 | 0.0 | 0.0 | 0.00 | 0.00 | 0.00 | 94 | 1018.3 |
| 20260510164536 | 69 | 102 | 0.0 | 0.0 | 0.00 | 0.00 | 0.00 | 95 | 1018.3 |
| 20260510164055 | 68 | 102 | 0.0 | 0.0 | 0.00 | 0.00 | 0.00 | 95 | 1018.3 |
| 20260510163603 | 68 | 102 | 0.0 | 0.0 | 0.00 | 0.00 | 0.00 | 96 | 1018.5 |
| 20260510163112 | 68 | 102 | 1.0 | 0.0 | 0.00 | 0.00 | 0.00 | 97 | 1018.4 |
| 20260510162536 | 67 | 102 | 0.0 | 0.0 | 0.00 | 0.00 | 0.00 | 97 | 1018.5 |
| 20260510162053 | 67 | 11 | 0.0 | 0.0 | 0.00 | 0.00 | 0.00 | 98 | 1018.5 |
| 20260510161536 | 67 | 11 | 0.0 | 0.0 | 0.00 | 0.00 | 0.00 | 98 | 1018.5 |
| 20260510161116 | 67 | 11 | 0.0 | 0.0 | 0.00 | 0.00 | 0.00 | 99 | 1018.4 |
| 20260510160623 | 67 | 11 | 0.0 | 0.0 | 0.00 | 0.00 | 0.00 | 100 | 1018.4 |
| 20260510160050 | 66 | 11 | 0.0 | 0.0 | 0.00 | 0.00 | 0.00 | 100 | 1018.4 |
| 20260510155601 | 66 | 11 | 0.0 | 0.0 | 0.00 | 0.00 | 0.00 | 100 | 1018.5 |
| 20260510155043 | 66 | 11 | 0.0 | 0.0 | 0.00 | 0.00 | 0.00 | 100 | 1018.5 |
| 20260510154624 | 66 | 8 | 0.0 | 0.0 | 0.00 | 0.00 | 0.00 | 100 | 1018.6 |
| 20260510154049 | 66 | 8 | 0.0 | 0.0 | 0.00 | 0.00 | 0.00 | 100 | 1018.6 |
| 20260510153616 | 65 | 8 | 0.0 | 0.0 | 0.00 | 0.00 | 0.00 | 100 | 1018.4 |
| 20260510153059 | 65 | 8 | 0.0 | 0.0 | 0.00 | 0.00 | 0.00 | 100 | 1018.6 |
| 20260510152605 | 65 | 8 | 0.0 | 0.0 | 0.00 | 0.00 | 0.00 | 100 | 1018.5 |
| 20260510152108 | 65 | 8 | 0.0 | 0.0 | 0.00 | 0.00 | 0.00 | 100 | 1018.6 |
| 20260510151551 | 65 | 8 | 0.0 | 0.0 | 0.00 | 0.00 | 0.00 | 100 | 1018.5 |
| 20260510151054 | 65 | 8 | 1.0 | 0.0 | 0.00 | 0.00 | 0.00 | 100 | 1018.7 |
| 20260510150540 | 64 | 8 | 1.0 | 0.0 | 0.00 | 0.00 | 0.00 | 100 | 1018.5 |
| 20260510150054 | 64 | 8 | 0.0 | 0.0 | 0.00 | 0.00 | 0.00 | 100 | 1018.4 |
| 20260510145538 | 64 | 8 | 0.0 | 0.0 | 0.00 | 0.00 | 0.00 | 100 | 1018.5 |
| 20260510145054 | 64 | 8 | 0.0 | 0.0 | 0.00 | 0.00 | 0.00 | 100 | 1018.4 |
| 20260510144619 | 64 | 0 | 0.0 | 0.0 | 0.00 | 0.00 | 0.00 | 100 | 1018.3 |
| 20260510144104 | 64 | 0 | 0.0 | 0.0 | 0.00 | 0.00 | 0.00 | 100 | 1018.3 |
| 20260510143611 | 64 | 43 | 2.0 | 0.0 | 0.00 | 0.00 | 0.00 | 100 | 1018.2 |
| 20260510143037 | 64 | 43 | 0.0 | 0.0 | 0.00 | 0.00 | 0.00 | 100 | 1018.2 |
| 20260510142553 | 64 | 43 | 1.0 | 0.0 | 0.00 | 0.00 | 0.00 | 100 | 1018.4 |
| 20260510142036 | 64 | 43 | 0.0 | 0.0 | 0.00 | 0.00 | 0.00 | 100 | 1018.3 |
| 20260510141554 | 64 | 43 | 0.0 | 0.0 | 0.00 | 0.00 | 0.00 | 100 | 1018.2 |
| 20260510141057 | 63 | 43 | 0.0 | 0.0 | 0.00 | 0.00 | 0.00 | 100 | 1018.3 |
| 20260510140538 | 63 | 43 | 0.0 | 0.0 | 0.00 | 0.00 | 0.00 | 100 | 1018.2 |
| 20260510140049 | 63 | 43 | 0.0 | 0.0 | 0.00 | 0.00 | 0.00 | 100 | 1018.1 |
| 20260510135556 | 63 | 43 | 0.0 | 0.0 | 0.00 | 0.00 | 0.00 | 100 | 1018.1 |
| 20260510135102 | 63 | 43 | 0.0 | 0.0 | 0.00 | 0.00 | 0.00 | 100 | 1018.1 |
| 20260510134550 | 63 | 43 | 0.0 | 0.0 | 0.00 | 0.00 | 0.00 | 100 | 1018.1 |
| 20260510134117 | 63 | 43 | 0.0 | 0.0 | 0.00 | 0.00 | 0.00 | 100 | 1018.1 |
| 20260510133604 | 63 | 60 | 0.0 | 0.0 | 0.00 | 0.00 | 0.00 | 100 | 1018.1 |
| 20260510133049 | 63 | 60 | 0.0 | 0.0 | 0.00 | 0.00 | 0.00 | 100 | 1018.1 |
| 20260510132554 | 63 | 60 | 0.0 | 0.0 | 0.00 | 0.00 | 0.00 | 100 | 1018.0 |
| 20260510132053 | 63 | 60 | 0.0 | 0.0 | 0.00 | 0.00 | 0.00 | 100 | 1018.1 |
| 20260510131603 | 63 | 60 | 0.0 | 0.0 | 0.00 | 0.00 | 0.00 | 100 | 1018.2 |
| 20260510131111 | 63 | 60 | 0.0 | 0.0 | 0.00 | 0.00 | 0.00 | 100 | 1018.0 |
| 20260510130602 | 63 | 60 | 0.0 | 0.0 | 0.00 | 0.00 | 0.00 | 100 | 1018.0 |
| 20260510130109 | 63 | 132 | 0.0 | 0.0 | 0.00 | 0.00 | 0.00 | 100 | 1017.7 |
| 20260510125553 | 63 | 132 | 0.0 | 0.0 | 0.00 | 0.00 | 0.00 | 100 | 1017.6 |
| 20260510125059 | 62 | 132 | 0.0 | 0.0 | 0.00 | 0.00 | 0.00 | 100 | 1017.6 |
| 20260510124550 | 62 | 132 | 0.0 | 0.0 | 0.00 | 0.00 | 0.00 | 100 | 1017.4 |
| 20260510124100 | 62 | 132 | 0.0 | 0.0 | 0.00 | 0.00 | 0.00 | 100 | 1017.3 |
| 20260510123550 | 62 | 132 | 0.0 | 0.0 | 0.00 | 0.00 | 0.00 | 100 | 1017.3 |
| 20260510123059 | 62 | 132 | 0.0 | 0.0 | 0.00 | 0.00 | 0.00 | 100 | 1017.3 |
| 20260510122549 | 62 | 132 | 0.0 | 0.0 | 0.00 | 0.00 | 0.00 | 100 | 1017.4 |
| 20260510122057 | 62 | 132 | 0.0 | 0.0 | 0.00 | 0.00 | 0.00 | 100 | 1017.4 |
| 20260510121550 | 62 | 132 | 0.0 | 0.0 | 0.00 | 0.00 | 0.00 | 100 | 1017.4 |
| 20260510121102 | 62 | 132 | 0.0 | 0.0 | 0.00 | 0.00 | 0.00 | 100 | 1017.3 |
| 20260510120550 | 62 | 132 | 0.0 | 0.0 | 0.00 | 0.00 | 0.00 | 100 | 1017.3 |
| 20260510120036 | 62 | 132 | 0.0 | 0.0 | 0.00 | 0.00 | 0.00 | 100 | 1017.2 |
| 20260510115614 | 62 | 132 | 0.0 | 0.0 | 0.00 | 0.00 | 0.00 | 100 | 1017.2 |
| 20260510115102 | 62 | 132 | 0.0 | 0.0 | 0.00 | 0.00 | 0.00 | 100 | 1017.0 |
| 20260510114608 | 62 | 132 | 0.0 | 0.0 | 0.00 | 0.00 | 0.00 | 100 | 1016.9 |
| 20260510114058 | 62 | 132 | 0.0 | 0.0 | 0.00 | 0.00 | 0.00 | 100 | 1016.9 |
| 20260510113548 | 62 | 132 | 0.0 | 0.0 | 0.00 | 0.00 | 0.00 | 100 | 1016.8 |
| 20260510113056 | 62 | 132 | 0.0 | 0.0 | 0.00 | 0.00 | 0.00 | 100 | 1016.8 |
| 20260510112604 | 61 | 132 | 0.0 | 0.0 | 0.00 | 0.00 | 0.00 | 100 | 1016.7 |
| 20260510112050 | 61 | 132 | 0.0 | 0.0 | 0.00 | 0.00 | 0.00 | 100 | 1016.5 |
| 20260510111602 | 61 | 132 | 0.0 | 0.0 | 0.00 | 0.00 | 0.00 | 100 | 1016.4 |
| 20260510111050 | 61 | 132 | 0.0 | 0.0 | 0.00 | 0.00 | 0.00 | 100 | 1016.2 |
| 20260510110559 | 61 | 132 | 0.0 | 0.0 | 0.00 | 0.00 | 0.00 | 100 | 1016.1 |
| 20260510110124 | 61 | 132 | 0.0 | 0.0 | 0.00 | 0.00 | 0.00 | 100 | 1016.1 |
| 20260510105551 | 61 | 132 | 0.0 | 0.0 | 0.00 | 0.00 | 0.00 | 100 | 1015.8 |
| 20260510105100 | 61 | 132 | 0.0 | 0.0 | 0.00 | 0.00 | 0.00 | 100 | 1015.7 |
| 20260510104609 | 62 | 132 | 0.0 | 0.0 | 0.00 | 0.00 | 0.00 | 100 | 1015.4 |
| 20260510104118 | 62 | 132 | 0.0 | 0.0 | 0.00 | 0.00 | 0.00 | 100 | 1015.4 |
| 20260510103546 | 62 | 132 | 1.0 | 0.0 | 0.00 | 0.00 | 0.00 | 100 | 1015.4 |
| 20260510103116 | 62 | 132 | 0.0 | 0.0 | 0.00 | 0.00 | 0.00 | 100 | 1015.3 |
| 20260510102546 | 62 | 132 | 0.0 | 0.0 | 0.00 | 0.00 | 0.00 | 100 | 1015.3 |
| 20260510102035 | 62 | 132 | 1.0 | 0.0 | 0.00 | 0.00 | 0.00 | 100 | 1015.1 |
| 20260510101553 | 62 | 132 | 0.0 | 0.0 | 0.00 | 0.00 | 0.00 | 100 | 1015.1 |
| 20260510101101 | 62 | 132 | 0.0 | 0.0 | 0.00 | 0.00 | 0.00 | 100 | 1015.2 |
| 20260510100554 | 62 | 132 | 0.0 | 0.0 | 0.00 | 0.00 | 0.00 | 100 | 1015.1 |
| 20260510100045 | 63 | 132 | 0.0 | 0.0 | 0.00 | 0.00 | 0.00 | 100 | 1015.2 |
| 20260510095535 | 63 | 132 | 0.0 | 0.0 | 0.00 | 0.00 | 0.00 | 100 | 1015.0 |
| 20260510095053 | 63 | 132 | 0.0 | 0.0 | 0.00 | 0.00 | 0.00 | 100 | 1014.8 |
| 20260510094602 | 63 | 132 | 0.0 | 0.0 | 0.00 | 0.00 | 0.00 | 100 | 1014.8 |
| 20260510094049 | 63 | 132 | 0.0 | 0.0 | 0.00 | 0.00 | 0.00 | 100 | 1014.8 |
| 20260510093555 | 63 | 132 | 0.0 | 0.0 | 0.00 | 0.00 | 0.00 | 100 | 1014.8 |
| 20260510093052 | 63 | 132 | 0.0 | 0.0 | 0.00 | 0.00 | 0.00 | 100 | 1014.7 |
| 20260510092604 | 63 | 132 | 0.0 | 0.0 | 0.00 | 0.00 | 0.00 | 100 | 1014.6 |
| 20260510092052 | 63 | 132 | 0.0 | 0.0 | 0.00 | 0.00 | 0.00 | 100 | 1014.6 |
| 20260510091558 | 63 | 132 | 0.0 | 0.0 | 0.00 | 0.00 | 0.00 | 100 | 1014.5 |
| 20260510091109 | 63 | 132 | 0.0 | 0.0 | 0.00 | 0.00 | 0.00 | 100 | 1014.5 |
| 20260510090535 | 63 | 132 | 0.0 | 0.0 | 0.00 | 0.00 | 0.00 | 100 | 1014.5 |
| 20260510090052 | 63 | 132 | 0.0 | 0.0 | 0.00 | 0.00 | 0.00 | 100 | 1014.4 |
| 20260510085602 | 63 | 132 | 0.0 | 0.0 | 0.00 | 0.00 | 0.00 | 100 | 1014.4 |
| 20260510085054 | 63 | 132 | 0.0 | 0.0 | 0.00 | 0.00 | 0.00 | 100 | 1014.3 |
| 20260510084602 | 63 | 132 | 0.0 | 0.0 | 0.00 | 0.00 | 0.00 | 100 | 1014.2 |
| 20260510084049 | 63 | 132 | 0.0 | 0.0 | 0.00 | 0.00 | 0.00 | 100 | 1014.0 |
| 20260510083539 | 63 | 132 | 0.0 | 0.0 | 0.00 | 0.00 | 0.00 | 100 | 1014.1 |
| 20260510083119 | 63 | 132 | 0.0 | 0.0 | 0.00 | 0.00 | 0.00 | 100 | 1014.1 |
| 20260510082542 | 63 | 132 | 0.0 | 0.0 | 0.00 | 0.00 | 0.00 | 100 | 1014.0 |
| 20260510082058 | 63 | 132 | 0.0 | 0.0 | 0.00 | 0.00 | 0.00 | 100 | 1013.9 |
| 20260510081606 | 63 | 132 | 0.0 | 0.0 | 0.00 | 0.00 | 0.00 | 100 | 1013.9 |
| 20260510081052 | 63 | 132 | 0.0 | 0.0 | 0.00 | 0.00 | 0.00 | 100 | 1013.9 |
| 20260510080600 | 63 | 132 | 0.0 | 0.0 | 0.00 | 0.00 | 0.00 | 100 | 1014.0 |
| 20260510080030 | 63 | 132 | 0.0 | 0.0 | 0.00 | 0.00 | 0.00 | 100 | 1014.1 |
| 20260510075551 | 63 | 132 | 0.0 | 0.0 | 0.00 | 0.00 | 0.00 | 100 | 1014.0 |
| 20260510075058 | 63 | 132 | 0.0 | 0.0 | 0.00 | 0.00 | 0.00 | 100 | 1014.0 |
| 20260510074548 | 63 | 132 | 0.0 | 0.0 | 0.00 | 0.00 | 0.00 | 100 | 1014.0 |
| 20260510074058 | 63 | 132 | 0.0 | 0.0 | 0.00 | 0.00 | 0.00 | 100 | 1013.9 |
| 20260510073546 | 63 | 132 | 0.0 | 0.0 | 0.00 | 0.00 | 0.00 | 100 | 1013.8 |
| 20260510073052 | 63 | 132 | 0.0 | 0.0 | 0.00 | 0.00 | 0.00 | 100 | 1013.8 |
| 20260510072602 | 63 | 132 | 0.0 | 0.0 | 0.00 | 0.00 | 0.00 | 100 | 1013.8 |
| 20260510072048 | 62 | 132 | 0.0 | 0.0 | 0.00 | 0.00 | 0.00 | 99 | 1013.8 |
| 20260510071556 | 62 | 132 | 0.0 | 0.0 | 0.00 | 0.00 | 0.00 | 100 | 1013.9 |
| 20260510071103 | 62 | 132 | 0.0 | 0.0 | 0.00 | 0.00 | 0.00 | 99 | 1013.9 |
| 20260510070551 | 62 | 132 | 0.0 | 0.0 | 0.00 | 0.00 | 0.00 | 99 | 1014.0 |
| 20260510070059 | 62 | 132 | 0.0 | 0.0 | 0.00 | 0.00 | 0.00 | 99 | 1013.9 |
| 20260510065550 | 62 | 132 | 0.0 | 0.0 | 0.00 | 0.00 | 0.00 | 99 | 1013.9 |
| 20260510065035 | 61 | 132 | 0.0 | 0.0 | 0.00 | 0.00 | 0.00 | 99 | 1013.9 |
| 20260510064551 | 61 | 132 | 0.0 | 0.0 | 0.00 | 0.00 | 0.00 | 98 | 1014.1 |
| 20260510064102 | 61 | 132 | 0.0 | 0.0 | 0.00 | 0.00 | 0.00 | 98 | 1014.1 |
| 20260510063548 | 61 | 132 | 0.0 | 0.0 | 0.00 | 0.00 | 0.00 | 98 | 1014.2 |
| 20260510063057 | 61 | 132 | 0.0 | 0.0 | 0.00 | 0.00 | 0.00 | 98 | 1014.3 |
| 20260510062547 | 61 | 132 | 0.0 | 0.0 | 0.00 | 0.00 | 0.00 | 98 | 1014.3 |
| 20260510062056 | 61 | 132 | 0.0 | 0.0 | 0.00 | 0.00 | 0.00 | 98 | 1014.3 |
| 20260510061548 | 61 | 132 | 0.0 | 0.0 | 0.00 | 0.00 | 0.00 | 98 | 1014.4 |
| 20260510061054 | 61 | 132 | 0.0 | 0.0 | 0.00 | 0.00 | 0.00 | 98 | 1014.3 |
| 20260510060602 | 61 | 132 | 0.0 | 0.0 | 0.00 | 0.00 | 0.00 | 98 | 1014.3 |
| 20260510060048 | 61 | 132 | 0.0 | 0.0 | 0.00 | 0.00 | 0.00 | 98 | 1014.3 |
| 20260510055535 | 62 | 132 | 0.0 | 0.0 | 0.00 | 0.00 | 0.00 | 98 | 1014.5 |
| 20260510055052 | 62 | 132 | 0.0 | 0.0 | 0.00 | 0.00 | 0.00 | 98 | 1014.6 |
| 20260510054600 | 62 | 132 | 0.0 | 0.0 | 0.00 | 0.00 | 0.00 | 98 | 1014.5 |
| 20260510054050 | 62 | 132 | 0.0 | 0.0 | 0.00 | 0.00 | 0.00 | 98 | 1014.5 |
| 20260510053557 | 62 | 132 | 0.0 | 0.0 | 0.00 | 0.00 | 0.00 | 98 | 1014.6 |
| 20260510053048 | 62 | 132 | 0.0 | 0.0 | 0.00 | 0.00 | 0.00 | 98 | 1014.7 |
| 20260510052537 | 62 | 132 | 0.0 | 0.0 | 0.00 | 0.00 | 0.00 | 97 | 1014.6 |
| 20260510052051 | 62 | 132 | 0.0 | 0.0 | 0.00 | 0.00 | 0.00 | 98 | 1014.7 |
| 20260510051600 | 63 | 132 | 0.0 | 0.0 | 0.00 | 0.00 | 0.00 | 98 | 1014.5 |
| 20260510051049 | 63 | 132 | 0.0 | 0.0 | 0.00 | 0.00 | 0.00 | 97 | 1014.5 |
| 20260510050618 | 63 | 132 | 0.0 | 0.0 | 0.00 | 0.00 | 0.00 | 97 | 1014.5 |
| 20260510050118 | 63 | 132 | 0.0 | 0.0 | 0.00 | 0.00 | 0.00 | 97 | 1014.5 |
| 20260510045545 | 63 | 132 | 0.0 | 0.0 | 0.00 | 0.00 | 0.07 | 97 | 1014.6 |
| 20260510045056 | 63 | 132 | 0.0 | 0.0 | 0.00 | 0.00 | 0.07 | 97 | 1014.6 |
| 20260510044601 | 64 | 132 | 0.0 | 0.0 | 0.00 | 0.00 | 0.07 | 97 | 1014.7 |
| 20260510044045 | 64 | 132 | 0.0 | 0.0 | 0.00 | 0.00 | 0.07 | 97 | 1014.8 |
| 20260510043553 | 64 | 132 | 0.0 | 0.0 | 0.00 | 0.00 | 0.07 | 98 | 1014.6 |
| 20260510043046 | 64 | 132 | 0.0 | 0.0 | 0.00 | 0.00 | 0.07 | 98 | 1014.7 |
| 20260510042555 | 64 | 132 | 0.0 | 0.0 | 0.00 | 0.00 | 0.07 | 97 | 1014.6 |
| 20260510042101 | 64 | 132 | 0.0 | 0.0 | 0.00 | 0.00 | 0.07 | 97 | 1014.5 |
| 20260510041548 | 64 | 132 | 0.0 | 0.0 | 0.00 | 0.00 | 0.07 | 97 | 1014.6 |
| 20260510041054 | 64 | 132 | 0.0 | 0.0 | 0.00 | 0.00 | 0.07 | 97 | 1014.8 |
| 20260510040605 | 65 | 132 | 0.0 | 0.0 | 0.00 | 0.00 | 0.07 | 97 | 1014.8 |
| 20260510040055 | 65 | 132 | 0.0 | 0.0 | 0.00 | 0.00 | 0.07 | 97 | 1014.7 |
| 20260510035613 | 65 | 132 | 0.0 | 0.0 | 0.00 | 0.00 | 0.07 | 97 | 1014.8 |
| 20260510035100 | 65 | 132 | 0.0 | 0.0 | 0.00 | 0.00 | 0.07 | 97 | 1014.7 |
| 20260510034600 | 65 | 132 | 0.0 | 0.0 | 0.00 | 0.00 | 0.07 | 97 | 1014.6 |
| 20260510034110 | 65 | 132 | 0.0 | 0.0 | 0.00 | 0.00 | 0.07 | 97 | 1014.9 |
| 20260510033615 | 65 | 132 | 0.0 | 0.0 | 0.00 | 0.00 | 0.07 | 97 | 1014.9 |
| 20260510033103 | 65 | 132 | 0.0 | 0.0 | 0.00 | 0.00 | 0.07 | 97 | 1015.0 |
| 20260510032550 | 65 | 132 | 0.0 | 0.0 | 0.00 | 0.00 | 0.07 | 97 | 1015.0 |
| 20260510032034 | 65 | 132 | 0.0 | 0.0 | 0.00 | 0.00 | 0.07 | 97 | 1015.2 |
| 20260510031551 | 65 | 132 | 0.0 | 0.0 | 0.00 | 0.00 | 0.07 | 97 | 1015.1 |
| 20260510031057 | 65 | 132 | 0.0 | 0.0 | 0.00 | 0.00 | 0.07 | 97 | 1015.0 |
| 20260510030550 | 65 | 132 | 0.0 | 0.0 | 0.00 | 0.00 | 0.07 | 96 | 1015.0 |
| 20260510030057 | 65 | 132 | 0.0 | 0.0 | 0.00 | 0.00 | 0.07 | 97 | 1014.9 |
| 20260510025604 | 66 | 132 | 0.0 | 0.0 | 0.00 | 0.00 | 0.07 | 97 | 1014.6 |
| 20260510025051 | 66 | 132 | 0.0 | 0.0 | 0.00 | 0.00 | 0.07 | 97 | 1014.8 |
| 20260510024558 | 66 | 132 | 0.0 | 0.0 | 0.00 | 0.00 | 0.07 | 96 | 1014.9 |
| 20260510024047 | 66 | 132 | 0.0 | 0.0 | 0.00 | 0.00 | 0.07 | 97 | 1014.9 |
| 20260510023536 | 66 | 132 | 0.0 | 0.0 | 0.00 | 0.00 | 0.07 | 96 | 1014.7 |
| 20260510023117 | 66 | 132 | 0.0 | 0.0 | 0.00 | 0.00 | 0.07 | 96 | 1014.7 |
| 20260510022620 | 66 | 132 | 0.0 | 0.0 | 0.00 | 0.00 | 0.07 | 97 | 1014.7 |
| 20260510022112 | 66 | 132 | 0.0 | 0.0 | 0.00 | 0.00 | 0.07 | 96 | 1014.6 |
| 20260510021558 | 66 | 132 | 0.0 | 0.0 | 0.00 | 0.00 | 0.07 | 96 | 1014.5 |
| 20260510021112 | 66 | 132 | 0.0 | 0.0 | 0.00 | 0.00 | 0.07 | 96 | 1014.4 |
| 20260510020543 | 66 | 132 | 0.0 | 0.0 | 0.00 | 0.00 | 0.07 | 96 | 1014.4 |
| 20260510020034 | 67 | 132 | 0.0 | 0.0 | 0.00 | 0.00 | 0.07 | 96 | 1014.5 |
| 20260510015554 | 67 | 132 | 0.0 | 0.0 | 0.00 | 0.00 | 0.07 | 96 | 1014.3 |
| 20260510015119 | 67 | 132 | 0.0 | 0.0 | 0.00 | 0.00 | 0.07 | 96 | 1014.3 |
| 20260510014549 | 67 | 132 | 0.0 | 0.0 | 0.00 | 0.00 | 0.07 | 96 | 1014.2 |
| 20260510014042 | 67 | 132 | 0.0 | 0.0 | 0.00 | 0.00 | 0.07 | 96 | 1014.0 |
| 20260510013615 | 67 | 132 | 0.0 | 0.0 | 0.00 | 0.00 | 0.07 | 95 | 1014.1 |
| 20260510013102 | 67 | 132 | 0.0 | 0.0 | 0.00 | 0.00 | 0.07 | 95 | 1014.1 |
| 20260510012548 | 67 | 132 | 0.0 | 0.0 | 0.00 | 0.00 | 0.07 | 95 | 1013.8 |
| 20260510012057 | 67 | 132 | 0.0 | 0.0 | 0.00 | 0.00 | 0.07 | 95 | 1013.9 |
| 20260510011612 | 67 | 132 | 0.0 | 0.0 | 0.00 | 0.00 | 0.07 | 95 | 1013.7 |
| 20260510011101 | 68 | 132 | 0.0 | 0.0 | 0.00 | 0.00 | 0.07 | 94 | 1013.5 |
| 20260510010548 | 68 | 132 | 0.0 | 0.0 | 0.00 | 0.00 | 0.07 | 93 | 1013.6 |
| 20260510010032 | 68 | 132 | 0.0 | 0.0 | 0.00 | 0.00 | 0.07 | 94 | 1013.4 |
| 20260510005551 | 68 | 132 | 0.0 | 0.0 | 0.00 | 0.00 | 0.07 | 94 | 1013.3 |
| 20260510005039 | 68 | 132 | 0.0 | 0.0 | 0.00 | 0.00 | 0.07 | 93 | 1013.2 |
| 20260510004552 | 68 | 132 | 0.0 | 0.0 | 0.00 | 0.00 | 0.07 | 93 | 1013.2 |
| 20260510004103 | 68 | 132 | 0.0 | 0.0 | 0.00 | 0.00 | 0.07 | 92 | 1013.2 |
| 20260510003549 | 68 | 132 | 0.0 | 0.0 | 0.00 | 0.00 | 0.07 | 92 | 1013.1 |
| 20260510003057 | 69 | 132 | 0.0 | 0.0 | 0.00 | 0.00 | 0.07 | 92 | 1013.1 |
| 20260510002551 | 69 | 132 | 0.0 | 0.0 | 0.00 | 0.00 | 0.07 | 92 | 1013.2 |
| 20260510002058 | 69 | 132 | 0.0 | 0.0 | 0.00 | 0.00 | 0.07 | 91 | 1013.4 |
| 20260510001609 | 69 | 132 | 0.0 | 0.0 | 0.00 | 0.00 | 0.07 | 91 | 1013.3 |
| 20260510001053 | 69 | 132 | 0.0 | 0.0 | 0.00 | 0.00 | 0.07 | 91 | 1013.2 |
| 20260510000600 | 69 | 132 | 0.0 | 0.0 | 0.00 | 0.00 | 0.07 | 91 | 1013.2 |
| 20260510000111 | 69 | 132 | 0.0 | 0.0 | 0.00 | 0.00 | 0.07 | 90 | 1013.1 |
| 20260509235559 | 70 | 132 | 0.0 | 0.0 | 0.00 | 0.00 | 0.07 | 90 | 1012.9 |
| 20260509235108 | 70 | 132 | 0.0 | 0.0 | 0.00 | 0.00 | 0.07 | 89 | 1012.9 |
| 20260509234554 | 70 | 132 | 0.0 | 0.0 | 0.00 | 0.00 | 0.07 | 89 | 1013.0 |
| 20260509234101 | 70 | 132 | 0.0 | 0.0 | 0.00 | 0.00 | 0.07 | 89 | 1012.8 |
| 20260509233550 | 70 | 132 | 0.0 | 0.0 | 0.00 | 0.00 | 0.07 | 89 | 1012.4 |
| 20260509233036 | 70 | 132 | 0.0 | 0.0 | 0.00 | 0.00 | 0.07 | 88 | 1012.4 |
| 20260509232551 | 71 | 132 | 0.0 | 0.0 | 0.00 | 0.00 | 0.07 | 88 | 1012.3 |
| 20260509232043 | 71 | 132 | 0.0 | 0.0 | 0.00 | 0.00 | 0.07 | 87 | 1012.4 |
| 20260509231609 | 71 | 132 | 0.0 | 0.0 | 0.00 | 0.00 | 0.07 | 87 | 1012.4 |
| 20260509231056 | 71 | 132 | 0.0 | 0.0 | 0.00 | 0.00 | 0.07 | 86 | 1012.6 |
| 20260509230547 | 71 | 132 | 0.0 | 0.0 | 0.00 | 0.00 | 0.07 | 85 | 1012.6 |
| 20260509230038 | 72 | 132 | 0.0 | 0.0 | 0.00 | 0.00 | 0.07 | 85 | 1012.4 |
| 20260509225555 | 72 | 132 | 0.0 | 0.0 | 0.00 | 0.00 | 0.07 | 86 | 1012.4 |
| 20260509225102 | 72 | 132 | 0.0 | 0.0 | 0.00 | 0.00 | 0.07 | 85 | 1012.3 |
| 20260509224547 | 72 | 132 | 0.0 | 0.0 | 0.00 | 0.00 | 0.07 | 85 | 1012.2 |
| 20260509224045 | 72 | 132 | 0.0 | 0.0 | 0.00 | 0.00 | 0.07 | 85 | 1012.1 |
| 20260509223534 | 72 | 132 | 0.0 | 0.0 | 0.00 | 0.00 | 0.07 | 85 | 1012.1 |
| 20260509223052 | 72 | 132 | 0.0 | 0.0 | 0.00 | 0.00 | 0.07 | 84 | 1012.3 |
| 20260509222600 | 72 | 132 | 0.0 | 0.0 | 0.00 | 0.00 | 0.07 | 84 | 1012.2 |
| 20260509222047 | 72 | 132 | 0.0 | 0.0 | 0.00 | 0.00 | 0.07 | 83 | 1012.1 |
| 20260509221534 | 72 | 132 | 0.0 | 0.0 | 0.00 | 0.00 | 0.07 | 82 | 1012.1 |
| 20260509221049 | 72 | 132 | 0.0 | 0.0 | 0.00 | 0.00 | 0.07 | 84 | 1011.9 |
| 20260509220536 | 72 | 132 | 0.0 | 0.0 | 0.00 | 0.00 | 0.07 | 83 | 1012.0 |
| 20260509220117 | 72 | 132 | 0.0 | 0.0 | 0.00 | 0.00 | 0.07 | 83 | 1012.0 |
| 20260509215601 | 72 | 132 | 0.0 | 0.0 | 0.00 | 0.00 | 0.07 | 83 | 1012.0 |
| 20260509215048 | 72 | 132 | 0.0 | 0.0 | 0.00 | 0.00 | 0.07 | 84 | 1012.0 |
| 20260509214554 | 73 | 132 | 0.0 | 0.0 | 0.00 | 0.00 | 0.07 | 82 | 1011.8 |
| 20260509214047 | 73 | 132 | 0.0 | 0.0 | 0.00 | 0.00 | 0.07 | 81 | 1011.9 |
| 20260509213535 | 73 | 132 | 0.0 | 0.0 | 0.00 | 0.00 | 0.07 | 81 | 1011.9 |
| 20260509213053 | 73 | 132 | 0.0 | 0.0 | 0.00 | 0.00 | 0.07 | 81 | 1011.8 |
| 20260509212538 | 73 | 132 | 0.0 | 0.0 | 0.00 | 0.00 | 0.07 | 81 | 1011.9 |
| 20260509212118 | 73 | 132 | 0.0 | 0.0 | 0.00 | 0.00 | 0.07 | 81 | 1011.8 |
| 20260509211549 | 73 | 132 | 0.0 | 0.0 | 0.00 | 0.00 | 0.07 | 81 | 1011.8 |
| 20260509211037 | 74 | 132 | 0.0 | 0.0 | 0.00 | 0.00 | 0.07 | 82 | 1011.8 |
| 20260509210556 | 74 | 132 | 0.0 | 0.0 | 0.00 | 0.00 | 0.07 | 81 | 1011.8 |
| 20260509210100 | 74 | 132 | 0.0 | 0.0 | 0.00 | 0.00 | 0.07 | 80 | 1011.8 |
| 20260509205547 | 74 | 132 | 0.0 | 0.0 | 0.00 | 0.00 | 0.07 | 79 | 1011.8 |
| 20260509205034 | 74 | 132 | 0.0 | 0.0 | 0.00 | 0.00 | 0.07 | 81 | 1011.7 |
| 20260509204551 | 74 | 132 | 0.0 | 0.0 | 0.00 | 0.00 | 0.07 | 80 | 1011.7 |